Preview of NWS' New Version of Forecast
This preview is not operational and should not be used for support decisions.
Latest weather observations around

Ardmore, Ardmore Municipal Airport (KADM)

Using English Units (Switch to International System of Units)
Date/ Time (CDT) Wind (mph) Vis. (mi) Weather Sky Cond. Temp (°F) Rel. Humidity Wind Chill (°F) Heat Index (°F) Pressure Precip. (in)
Air Dwpt 6 hour Altimeter (inHg) Sea level (inHg) 1 hr 3 hr 6 hr
Max Min
Jun 21 11:55 N 9 10 Clear CLR 86 66     52%   88 29.95        
Jun 21 10:55 N 13 10 Clear CLR 84 66     55%   87 29.95        
Jun 21 09:55 N 9 10 Clear CLR 82 70     66%   86 29.95        
Jun 21 08:55 NNW 6 10 Clear CLR 77 72     83%   78 29.96        
Jun 21 07:55 Calm 10 Clear CLR 72 70     94%   73 29.94        
Jun 21 06:55 Calm 10 Clear CLR 68 68     100%     29.92        
Jun 21 06:35 Calm 0.75 Fog/Mist VV005 67 67     99%     29.92        
Jun 21 06:15 Calm 0.5 Fog VV005 66 66     99%     29.92        
Jun 21 05:55 Calm 0.75 Fog/Mist VV005 67 66     99%     29.92        
Jun 21 05:35 Calm 7 Clear CLR 66 66     100%     29.91        
Jun 21 05:15 Calm 4 Fog/Mist CLR 67 66     99%     29.91        
Jun 21 04:55 Calm 10 Clear CLR 67 67     99%     29.91        
Jun 21 04:35 Calm 4 Fog/Mist CLR 68 68     99%     29.9        
Jun 21 04:15 Calm 0.25 Fog VV002 68 68     99%     29.9        
Jun 21 03:55 Calm 0.25 Fog VV002 68 68     99%     29.89        
Jun 21 03:35 Calm 0.5 Fog VV005 69 68     99%     29.89        
Jun 21 03:15 Calm 0.5 Fog VV005 68 67     99%     29.89        
Jun 21 02:55 Calm 0.25 Fog VV 69 68     99%     29.89        
Jun 21 02:35 Calm 0.25 Fog VV002 69 69     98%     29.89        
Jun 21 02:15 Calm 0.25 Fog VV002 69 68     98%     29.89        
Jun 21 01:55 Calm 0.5 Fog VV005 71 70     98%   72 29.89        
Jun 21 01:35 Calm 1 Fog/Mist VV007 70 70     99%   72 29.89        
Jun 21 01:15 Calm 10 Clear CLR 70 69     98%     29.9        
Jun 21 00:55 Calm 10 Clear CLR 70 69     97%   71 29.9        
Jun 21 00:35 Calm 10 Clear CLR 72 70     95%   73 29.91        
Jun 21 00:15 Calm 10 Clear CLR 72 69     92%   73 29.92        
Jun 20 23:55 Calm 10 Clear CLR 73 69     90%   74 29.92        
Jun 20 23:35 Calm 10 Clear CLR 74 70     87%   76 29.92        
Jun 20 23:15 Calm 10 Clear CLR 74 70     86%   75 29.92        
Jun 20 22:55 Calm 10 Clear CLR 75 70     85%   76 29.92        
Jun 20 22:35 Calm 10 Clear CLR 75 71     87%   76 29.91        
Jun 20 22:15 Calm 10 Clear CLR 76 71     82%   77 29.9        
Jun 20 21:55 Calm 10 Partly Cloudy SCT110 77 73     87%   78 29.89        
Jun 20 21:35 Calm 10 Partly Cloudy SCT110 77 74     90%   79 29.89        
Jun 20 21:15 E 3 10 Clear CLR 78 74     88%   80 29.88        
Jun 20 20:55 ESE 3 10 Clear CLR 80 74     84%   84 29.87        
Jun 20 20:35 E 5 10 Clear CLR 81 74     81%   86 29.86        
Jun 20 20:15 E 5 10 Clear CLR 83 74     76%   89 29.86        
Jun 20 19:55 E 5 10 Clear CLR 86 74     69%   94 29.85        
Jun 20 19:35 ENE 6 10 Clear CLR 86 73     66%   94 29.84        
Jun 20 19:15 NNE 7 10 Clear CLR 87 72     61%   94 29.83        
Jun 20 18:55 N 7 10 Clear CLR 88 73     62%   96 29.82        
Jun 20 18:35 N 8 10 Clear CLR 89 74     62%   98 29.81        
Jun 20 18:15 N 5 10 Clear CLR 89 75     64%   98 29.8        
Jun 20 17:55 Calm 10 Partly Cloudy SCT050 88 75     66%   97 29.8        
Jun 20 17:35 Calm 10 Mostly Cloudy BKN050 BKN080 BKN085 85 77     77%   94 29.8        
Jun 20 17:15 Calm 10 Light Drizzle BKN050 BKN070 BKN080 82 74     75%   88 29.8        
Jun 20 14:55 S 5 10 Clear CLR 91 72     53%   99 29.82        
Jun 20 13:55 SSE 5 10 Clear CLR 91 73     56%   101 29.84        
Jun 20 12:55 Calm 10 Partly Cloudy SCT030 SCT038 88 70     55%   93 29.87        
Jun 20 11:55 SSW 7 10 Mostly Cloudy BKN048 86 72     62%   92 29.9        
Jun 20 10:55 Calm 10 Mostly Cloudy SCT019 BKN027 BKN032 84 73     70%   91 29.91        
Jun 20 09:55 Calm 10 Cloudy BKN015 BKN025 OVC090 81 72     74%   85 29.93        
Jun 20 08:55 Calm 10 Cloudy SCT027 BKN080 OVC090 77 72     83%   78 29.94        
Jun 20 08:15 Calm 10 Cloudy BKN019 BKN060 OVC080 77 72     83%   78 29.93        
Jun 20 07:55 Calm 10 Cloudy BKN065 OVC080 77 72     83%   78 29.93        
Jun 20 06:55 Calm 10 Cloudy SCT021 BKN080 OVC095 73 72     94%   75 29.92        
Jun 20 06:35 Calm 10 Cloudy BKN021 OVC027 72 71     94%   74 29.92        
Jun 20 06:15 Calm 10 Mostly Cloudy SCT019 BKN027 BKN100 72 70     92%   73 29.92        
Jun 20 05:55 Calm 10 Partly Cloudy SCT029 73 70     91%   74 29.9        
Jun 20 05:35 Calm 10 Cloudy SCT023 OVC034 73 70     91%   74 29.89        
Jun 20 05:15 Calm 10 Cloudy BKN030 OVC036 73 70     90%   74 29.89        
Jun 20 04:55 Calm 10 Cloudy SCT020 OVC028 72 69     91%   73 29.89        
Jun 20 04:35 Calm 10 Mostly Cloudy BKN026 BKN100 BKN120 72 68     90%   73 29.87        
Jun 20 04:15 Calm 10 Mostly Cloudy BKN024 71 68     90%   72 29.88        
Jun 20 03:55 Calm 10 Clear CLR 71 68     90%   72 29.88        
Jun 20 03:35 Calm 10 Clear CLR 72 69     88%   74 29.86        
Jun 20 03:15 Calm 10 Clear CLR 72 69     89%   73 29.86        
Jun 20 02:55 Calm 10 Clear CLR 72 69     91%   73 29.87        
Jun 20 02:35 Calm 10 Clear CLR 72 69     90%   74 29.87        
Jun 20 02:15 Calm 7 Clear CLR 72 70     91%   74 29.89        
Jun 20 01:55 Calm 10 Clear CLR 72 70     93%   73 29.89        
Jun 20 01:35 Calm 10 Clear   73 69     88%   74 29.9        
Jun 20 01:15 Calm 10 Clear   74 70     87%   75 29.9        
Jun 20 00:55 SSE 3 10 Clear   75 70     85%   76 29.9        
Jun 20 00:35 Calm 10 Clear CLR 76 70     83%   77 29.9        
Jun 20 00:15 Calm 10 Clear CLR 76 70     81%   77 29.9        
Jun 19 23:55 Calm 10 Clear CLR 76 70     82%   77 29.9        
Jun 19 23:35 SE 3 10 Clear CLR 76 71     83%   78 29.91        
Jun 19 23:15 Calm 10 Clear CLR 77 70     81%   78 29.91        
Jun 19 22:55 Calm 10 Clear CLR 78 70     79%   79 29.91        
Jun 19 22:35 SSE 3 10 Clear CLR 78 70     77%   79 29.9        
Jun 19 22:15 SE 3 10 Partly Cloudy SCT080 SCT120 79 71     76%   80 29.9        
Jun 19 21:55 SE 5 10 Mostly Cloudy SCT044 SCT060 BKN080 80 71     72%   84 29.89        
Jun 19 21:35 SE 5 10 Cloudy BKN040 OVC050 81 71     72%   84 29.89        
Jun 19 21:15 Calm 10 Mostly Cloudy BKN040 BKN050 BKN065 81 71     73%   84 29.89        
Jun 19 20:55 SE 3 10 Mostly Cloudy SCT042 SCT047 BKN050 81 71     72%   85 29.89        
Jun 19 20:35 Calm 10 Mostly Cloudy SCT050 SCT065 BKN090 81 71     72%   86 29.89        
Jun 19 20:15 SE 3 10 Partly Cloudy SCT090 83 71     67%   87 29.88        
Jun 19 19:55 SE 6 10 Mostly Cloudy BKN090 83 71     65%   88 29.88        
Jun 19 19:35 SE 7 10 Mostly Cloudy SCT040 SCT070 BKN080 84 71     64%   89 29.89        
Jun 19 19:15 SE 6 10 Partly Cloudy SCT038 SCT080 85 71     62%   90 29.89        
Jun 19 18:55 SE 7 10 Clear CLR 86 71     60%   91 29.89        
Jun 19 18:35 ESE 8 10 Clear CLR 87 71     59%   93 29.89        
Jun 19 18:15 SSE 9 10 Clear CLR 87 72     59%   94 29.9        
Jun 19 17:55 SE 8 10 Partly Cloudy SCT080 SCT120 85 72     65%   91 29.9        
Jun 19 17:35 SSE 6 10 Cloudy SCT032 OVC070 85 72     64%   91 29.91        
Jun 19 17:15 S 8 10 Mostly Cloudy SCT070 BKN080 86 72     63%   92 29.91        
Jun 19 16:55 SE 7 10 Mostly Cloudy BKN070 86 72     63%   92 29.91        
Jun 19 15:55 ESE 9 10 Mostly Cloudy SCT031 SCT043 BKN075 86 72     62%   92 29.92        
Jun 19 14:55 SE 10 10 Partly Cloudy SCT029 SCT036 SCT045 88 73     62%   96 29.94        
Jun 19 13:55 SE 5 10 Cloudy SCT023 BKN040 OVC048 84 73     70%   91 29.97        
Jun 19 12:55 SE 5 7 Light Rain SCT023 BKN040 OVC048 79 73     84%   82 29.99        
Jun 19 11:55 SE 8 10 Cloudy BKN021 BKN040 OVC048 81 70     70%   84 30        
Jun 19 10:55 SE 8 10 Cloudy BKN015 BKN022 OVC036 79 72     79%   82 30.01        
Jun 19 09:55 SE 6 10 Cloudy SCT010 BKN015 OVC022 77 73     89%   79 30.01        
Jun 19 08:55 SE 8 7 Cloudy SCT006 BKN013 OVC022 73 72     94%   75 30.01        
Jun 19 08:32 SE 9 4 Fog/Mist BKN013 OVC024 75 70     83%   76 30        
Jun 19 07:55 SE 8 10 Cloudy OVC015 75 70     83%   76 30        
Jun 19 06:55 ESE 6 10 Cloudy SCT023 OVC034 75 70     83%   76 29.99        
Jun 19 06:35 SE 6 10 Cloudy SCT023 OVC036 76 70     83%   77 29.99        
Jun 19 06:15 SE 5 10 Cloudy OVC034 76 71     84%   77 29.98        
Jun 19 05:55 Calm 10 Cloudy OVC034 76 71     85%   77 29.98        
Jun 19 05:35 SE 5 10 Clear   76 71     85%   77 29.97        
Jun 19 05:15 SE 3 10 Clear   75 71     85%   77 29.97        
Jun 19 04:55 ESE 3 10 Clear   75 71     85%   77 29.97        
Jun 19 04:35 ESE 3 10 Cloudy SCT026 OVC034 75 71     86%   76 29.97        
Jun 19 04:15 ESE 3 10 Cloudy OVC032 75 71     86%   76 29.97        
Jun 19 03:55 ESE 5 10 Mostly Cloudy BKN032 BKN100 75 70     85%   76 29.97        
Jun 19 03:35 Calm 10 Mostly Cloudy BKN030 BKN100 BKN120 75 70     86%   76 29.96        
Jun 19 03:15 Calm 10 Partly Cloudy SCT030 SCT100 SCT120 74 70     87%   76 29.97        
Jun 19 02:55 Calm 10 Clear CLR 75 70     86%   76 29.97        
Jun 19 02:35 Calm 10 Clear CLR 75 70     86%   76 29.97        
Jun 19 02:15 SSE 5 10 Clear CLR 75 70     84%   76 29.97        
Jun 19 01:55 SE 3 10 Clear CLR 76 70     82%   77 29.97        
Jun 19 01:35 Calm 10 Clear CLR 76 70     81%   77 29.97        
Jun 19 01:15 SE 5 10 Clear CLR 77 70     78%   78 29.97        
Jun 19 00:55 SE 6 10 Clear CLR 78 70     77%   79 29.97        
Jun 19 00:35 SE 6 10 Clear CLR 78 70     76%   79 29.98        
Jun 19 00:15 SSE 6 10 Clear CLR 78 70     75%   79 29.98        
Jun 18 23:55 SE 6 10 Clear CLR 79 70     74%   82 29.98        
Jun 18 23:35 SSE 7 10 Clear CLR 80 71     74%   83 29.97        
Jun 18 23:15 SE 5 10 Clear CLR 80 71     74%   83 29.97        
Jun 18 22:55 SE 8 10 Clear CLR 80 71     75%   83 29.97        
Jun 18 22:35 SE 8 10 Clear CLR 79 72     78%   82 29.97        
Jun 18 22:15 Calm 10 Clear CLR 80 72     76%   83 29.97        
Jun 18 21:55 Calm 10 Clear CLR 80 72     75%   84 29.96        
Jun 18 21:35 ESE 3 10 Clear CLR 80 72     76%   85 29.96        
Jun 18 21:15 Calm 10 Clear CLR 82 72     72%   87 29.96        
Jun 18 20:55 Calm 10 Clear CLR 84 72     67%   89 29.95        
Jun 18 20:35 SE 6 10 Clear CLR 85 71     65%   90 29.94        
Jun 18 20:15 SE 7 10 Clear CLR 86 71     62%   92 29.94        
Jun 18 19:55 SE 7 10 Clear CLR 87 71     59%   92 29.94        
Jun 18 19:35 SE 9 10 Clear CLR 88 72     59%   94 29.92        
Jun 18 19:15 SE 8 10 Clear CLR 89 72     57%   95 29.92        
Jun 18 18:55 SE 13 10 Clear CLR 89 71     55%   95 29.92        
Jun 18 18:35 SE 9 10 Clear CLR 90 71     53%   96 29.92        
Jun 18 18:15 SE 10 10 Clear CLR 90 71     53%   97 29.92        
Jun 18 17:55 SSE 14 10 Clear CLR 90 70     52%   96 29.93        
Jun 18 17:35 SE 14 10 Partly Cloudy SCT046 92 71     51%   99 29.93        
Jun 18 17:15 SE 11 10 Partly Cloudy SCT046 91 70     51%   97 29.94        
Jun 18 16:55 SE 10 10 Partly Cloudy SCT110 92 72     52%   99 29.94        
Jun 18 13:55 SE 8 10 Partly Cloudy SCT033 SCT050 90 72     56%   96 30        
Jun 18 12:55 ESE 8 10 Cloudy SCT031 SCT038 OVC048 86 72     62%   92 30.02        
May 15 00:35 N 11 10 Thunderstorms and Rain BKN036 BKN043 76 69     78%   77 29.94        
May 14 23:35 Calm 10 Partly Cloudy SCT055 78 69     73%   79 29.89        
May 14 18:55 SSE 10 10 Clear CLR 85 69     58%   89 29.83        
May 14 00:15 Calm 10 Partly Cloudy SCT070 72 67     85%   73 29.97        
May 13 21:55 SE 3 10 Clear CLR 77 67     73%   77 29.94        
May 13 18:15 SSE 8 10 Partly Cloudy SCT047 SCT060 SCT070 86 68     54%   90 29.91        
May 13 13:55 SSE 13 10 Partly Cloudy SCT040 SCT046 88 70     55%   93 29.98        
May 13 02:15 SSE 6 10 Clear CLR 72 66     82%   73 29.94        
May 12 17:55 SSE 17 10 Clear CLR 86 66     51%   88 29.89        
May 12 01:35 SE 3 10 Clear CLR 72 63     75%   72 29.88        
May 12 00:55 Calm 10 Clear CLR 72 64     75%   72 29.87        
May 11 21:15 S 6 10 Clear CLR 77 63     62%   78 29.81        
May 11 20:55 SSE 8 10 Clear CLR 78 63     60%   79 29.8        
May 11 16:55 S 13 10 Clear CLR 86 65     49%   87 29.81        
May 11 15:55 S 22 10 Clear and Windy CLR 86 63     46%   87 29.82        
Jun 12 07:55 SSE 5 10 Partly Cloudy SCT013 SCT090 77 72     83%   78 29.93        
Notice The following observation data may not be complete
Jun 12 07:15   10 Clear CLR          %              
Jun 11 22:15 SE 5 10 Clear CLR 76 65     67%   77 29.89        
Jun 11 21:15 SE 7 10 Clear CLR 80 63     58%   81 29.86        
Jun 11 16:55 SSE 15 10 Clear CLR 90 68     49%   93 29.87        
Jun 11 02:20 SE 6 10 Clear CLR 73 66     79%   74 29.87        
Jun 10 21:55 SSE 13 10 Clear CLR 80 66     62%   82 29.85        
Notice The following observation data may not be complete
Jun 10 04:15   10 Clear CLR          %              
Notice The following observation data may not be complete
Jun 09 22:15   10 Cloudy OVC037          %              
Jun 08 22:35 ESE 5 10 Clear CLR 71 62     73%   71 29.92        
Jun 08 22:15 ESE 5 10 Clear CLR 71 62     73%   71 29.91        
Jun 08 20:40 E 5 10 Clear CLR 75 62     63%   76 29.89        
Jun 08 10:55 SSE 8 10 Clear CLR 81 59     48%   81 30.03        
Notice The following observation data may not be complete
Jun 08 05:35   10 Clear CLR          %              
Jun 08 04:55 Calm 10 Clear CLR 61 59     93%     30        
Jun 06 12:55 N 15 10 Clear CLR 91 61     36%   91 29.91        
Notice The following observation data may not be complete
Jun 06 08:55   10 Clear CLR          %              
Jun 06 02:55 Calm 7 Clear   70 70     99%     29.86        
Notice The following observation data may not be complete
Jun 06 00:35   10 Clear CLR          %              
Notice The following observation data may not be complete
Jun 05 20:35   10 Clear CLR          %